Tracking 29790 objects as of 11-Oct-2024
HD Live streaming from Space Station
objects crossing your sky now

FLOCK 4Q 22

Track FLOCK 4Q 22 now!
10-day predictions
FLOCK 4Q 22 is classified as:


NORAD ID: 58306
Int'l Code: 2023-174BC
Perigee: 491.8 km
Apogee: 505.9 km
Inclination: 97.4 °
Period: 94.4 minutes
Semi major axis: 6869 km
RCS: Unknown
Launch date: November 11, 2023
Source: United States (US)
Launch site: AIR FORCE WESTERN TEST RANGE (AFWTR)
Your satellite tracking list
Your tracking list is empty




NASA's NSSDC Master Catalog

Two Line Element Set (TLE):
1 58306U 23174BC  24285.16053363  .00335599  00000-0  12974-1 0  9995
2 58306  97.4420 358.6388 0010228 173.5577 186.5794 15.24691593 51358
Source of the keplerian elements: AFSPC